Back to catalog

SL-16 DEB

AliveLEO
NORAD 22426·DEBRIS·🇷🇺 Russia

Launched Dec 25, 1992 from Baikonur Cosmodrome

Loading…

Next Passes (next 24 hours)

TLE

FreshSource: Space-Track

Epoch: Sep 14, 2026, 08:00 UTC

1 22426U 92093DT  26257.33347594  .00001141  00000-0  43053-3 0  9994
2 22426  71.3462  99.3472 0119294  67.5977 105.6334 14.29485580735926

Track SL-16 DEB in real time with AllMySat

Download on the App Store